This is the latest recevied weather packets stored in our database for station/object KC4KQE. If no packets are shown the sender has not sent any weather packets the latest 1 day(s).
| Time | Temp. | Humidity | Pressure | Rain* | Wind** | Luminosity | Snow |
|---|---|---|---|---|---|---|---|
| 1777984156 | 16.11° C | 83% | 1011.4 hPa | 0 mm | 3.13 m/s, 110° | 0 W/m² | - |
| 1777983856 | 16.11° C | 83% | 1011.5 hPa | 0 mm | 1.34 m/s, 110° | 0 W/m² | - |
| 1777983556 | 16.11° C | 83% | 1011.4 hPa | 0 mm | 0.45 m/s, 110° | 0 W/m² | - |
| 1777983256 | 16.11° C | 82% | 1011.4 hPa | 0 mm | 0.45 m/s, 110° | 0 W/m² | - |
| 1777982956 | 16.11° C | 82% | 1011.4 hPa | 0 mm | 0.89 m/s, 110° | 0 W/m² | - |
| 1777982656 | 16.11° C | 82% | 1011.3 hPa | 0 mm | 0.45 m/s, 110° | 0 W/m² | - |
| 1777982356 | 16.11° C | 81% | 1011.3 hPa | 0 mm | 1.34 m/s, 110° | 0 W/m² | - |
| 1777982056 | 16.11° C | 80% | 1011.1 hPa | 0 mm | 1.79 m/s, 110° | 0 W/m² | - |
| 1777981756 | 16.11° C | 81% | 1011.2 hPa | 0 mm | 1.79 m/s, 110° | 0 W/m² | - |
| 1777981456 | 16.11° C | 81% | 1011.3 hPa | 0 mm | 1.79 m/s, 110° | 0 W/m² | - |
| 1777981156 | 16.11° C | 82% | 1011.3 hPa | 0 mm | 2.24 m/s, 110° | 0 W/m² | - |
| 1777980856 | 16.11° C | 82% | 1011.3 hPa | 0 mm | 1.34 m/s, 110° | 0 W/m² | - |
| 1777980556 | 16.11° C | 82% | 1011.4 hPa | 0 mm | 0.45 m/s, 110° | 0 W/m² | - |
| 1777980261 | 16.11° C | 83% | 1011.4 hPa | 0 mm | 0.45 m/s, 110° | 0 W/m² | - |
| 1777979956 | 16.11° C | 83% | 1011.4 hPa | 0 mm | 0.89 m/s, 110° | 0 W/m² | - |
| 1777979656 | 16.11° C | 83% | 1011.4 hPa | 0 mm | 0.89 m/s, 110° | 0 W/m² | - |
| 1777979356 | 16.11° C | 84% | 1011.5 hPa | 0 mm | 4.02 m/s, 110° | 0 W/m² | - |
| 1777979062 | 16.11° C | 84% | 1011.5 hPa | 0 mm | 3.58 m/s, 110° | 0 W/m² | - |
| 1777978756 | 16.11° C | 84% | 1011.6 hPa | 0 mm | 2.24 m/s, 110° | 0 W/m² | - |
| 1777978456 | 16.11° C | 84% | 1011.7 hPa | 0 mm | 0.89 m/s, 110° | 0 W/m² | - |
| 1777978156 | 16.11° C | 84% | 1011.9 hPa | 0 mm | 1.79 m/s, 110° | 0 W/m² | - |
| 1777977856 | 16.11° C | 85% | 1012.2 hPa | 0 mm | 3.58 m/s, 110° | 0 W/m² | - |
| 1777977557 | 16.11° C | 85% | 1012.3 hPa | 0 mm | 1.34 m/s, 110° | 0 W/m² | - |
| 1777977256 | 16.11° C | 84% | 1012.4 hPa | 0 mm | 1.79 m/s, 110° | 0 W/m² | - |
| 1777976956 | 16.11° C | 84% | 1012.4 hPa | 0 mm | 4.92 m/s, 110° | 0 W/m² | - |
* Rain latest hour (hover to see other rain measurements)
** Current wind speed in m/s (hover to see current wind gust speed)